Location: ????????
(55.6189°N, 38.3031°E)
Time: 23:26:16
(UTC+00:00)

SJ 16-02 - Pass Details

Date: 15 November 2019
Orbit: 607 x 616 km, 75.0° (Epoch: 06 December)

Event Time Altitude Azimuth Distance (km) Brightness Sun altitude
Rises 01:28:16 0° 157° (SSE) 2,861 4.9 -29.5°
Reaches altitude 10° 01:31:06 10° 138° (SE) 1,961 4.3 -29.1°
Maximum altitude 01:33:58 17° 97° (E) 1,539 4.1 -28.7°
Drops below altitude 10° 01:36:51 10° 55° (NE) 1,970 4.7 -28.3°
Sets 01:39:42 0° 36° (NE) 2,879 5.4 -27.9°
